Location: Drummondville
(45.8830°N, 72.4830°W)
Time: 20:03:12
(UTC-05:00)

Vanguard 2 Rocket - All Passes

Search period start: 18 November 2017 00:00
Search period end: 28 November 2017 00:00
Orbit: 556 x 3326 km, 32.9° (Epoch: 17 November)

Date Brightness Start Highest point End Pass type
(mag) Time Alt. Az. Time Alt. Az. Time Alt. Az.
18 Nov - 01:48:44 10° SSW 02:01:21 29° SSE 02:09:50 10° ESE visible
18 Nov - 04:04:18 10° WSW 04:15:29 36° S 04:22:18 10° ESE visible
18 Nov - 06:21:15 10° WSW 06:28:16 25° SSW 06:33:00 10° SSE visible
19 Nov - 00:48:11 10° SSW 01:01:04 26° SSE 01:10:18 10° ESE visible
19 Nov - 03:02:46 10° SW 03:15:42 37° S 03:23:39 10° ESE visible
19 Nov - 05:19:45 10° WSW 05:29:09 33° SSW 05:35:02 10° SE visible
19 Nov - 07:38:07 10° WSW 07:40:58 13° SW 07:43:21 10° SSW daylight
19 Nov - 23:48:21 10° SSW 00:00:36 22° SSE 00:10:06 10° ESE visible
20 Nov - 02:01:21 10° SW 02:15:36 36° SSE 02:24:44 10° ESE visible
20 Nov - 04:18:04 10° WSW 04:29:44 38° S 04:36:45 10° ESE visible
20 Nov - 06:35:49 10° WSW 06:42:13 21° SSW 06:46:45 10° SSE daylight
20 Nov - 22:49:41 10° S 23:00:04 17° SE 23:08:51 10° ESE night (unlit)
21 Nov - 01:00:13 10° SW 01:15:13 34° SSE 01:25:27 10° ESE visible
21 Nov - 03:16:17 10° WSW 03:29:57 41° S 03:38:12 10° ESE visible
21 Nov - 05:33:59 10° WSW 05:43:12 30° SSW 05:49:07 10° SE visible
21 Nov - 21:53:29 10° SSE 21:59:32 12° SE 22:05:10 10° ESE night (unlit)
21 Nov - 23:59:37 10° SSW 00:14:37 30° SSE 00:25:43 10° ESE visible
22 Nov - 02:14:30 10° SW 02:29:49 42° S 02:39:23 10° ESE visible
22 Nov - 04:32:05 10° WSW 04:43:52 37° SSW 04:51:01 10° SE visible
22 Nov - 06:50:52 10° WSW 06:55:58 16° SW 06:59:54 10° S daylight
22 Nov - 22:59:47 10° SSW 23:13:55 25° SSE 23:25:19 10° ESE night (unlit)
23 Nov - 01:12:58 10° SW 01:29:21 41° SSE 01:40:14 10° ESE visible
23 Nov - 03:30:04 10° WSW 03:44:07 43° S 03:52:35 10° ESE visible
23 Nov - 05:48:26 10° W 05:57:05 25° SSW 06:02:52 10° SSE visible
23 Nov - 22:01:04 10° S 22:13:13 20° SE 22:23:54 10° ESE visible
24 Nov - 00:11:52 10° SW 00:28:38 38° SSE 00:40:42 10° E visible
24 Nov - 02:28:03 10° WSW 02:43:59 46° S 02:53:51 10° ESE visible
24 Nov - 04:46:15 10° W 04:57:51 34° SSW 05:05:03 10° SE visible
24 Nov - 07:07:25 10° WSW 07:09:31 11° SW 07:11:25 10° SSW daylight
24 Nov - 21:04:24 10° SSE 21:12:38 14° SE 21:20:28 10° ESE visible
24 Nov - 23:11:23 10° SSW 23:27:46 33° SSE 23:40:40 10° E visible
25 Nov - 01:26:13 10° WSW 01:43:28 46° S 01:54:48 10° ESE visible
25 Nov - 03:44:02 10° WSW 03:58:11 42° SSW 04:06:48 10° SE visible
25 Nov - 06:03:17 10° W 06:10:45 20° SW 06:16:06 10° S visible
25 Nov - 22:11:43 10° SSW 22:26:52 28° SSE 22:39:57 10° E visible
26 Nov - 00:24:45 10° SW 00:42:38 44° SSE 00:55:23 10° E visible
26 Nov - 02:41:50 10° WSW 02:58:05 47° S 03:08:11 10° ESE visible
26 Nov - 05:00:38 10° W 05:11:39 29° SSW 05:18:47 10° SSE visible
26 Nov - 21:13:09 10° S 21:26:06 22° SE 21:38:13 10° E visible
26 Nov - 23:23:50 10° SW 23:41:36 41° SSE 23:55:32 10° E visible
27 Nov - 01:39:48 10° WSW 01:57:33 49° S 02:09:12 10° ESE visible
27 Nov - 03:58:11 10° W 04:12:07 38° SSW 04:20:48 10° SE visible
27 Nov - 06:19:00 10° WSW 06:24:11 14° SW 06:28:21 10° SSW visible
27 Nov - 20:16:28 10° SSE 20:25:34 15° SE 20:34:36 10° ESE visible
27 Nov - 22:23:36 10° SSW 22:40:32 35° SSE 22:55:08 10° E visible
